Weather History for Martha's Vineyard, MA

Change the Weather History Date:

Monday, April 21, 2014

  Actual Average Record
Temperature  
Mean Temperature 41 °F -  
Max Temperature 60 °F 54 °F 81 °F (1976)
Min Temperature 23 °F 39 °F 23 °F (2014)
Degree Days  
Heating Degree Days 24    
Moisture  
Dew Point 32 °F    
Average Humidity 79    
Maximum Humidity 92    
Minimum Humidity 49    
Precipitation  
Precipitation 0.00 in - - ()
Sea Level Pressure  
Sea Level Pressure 30.15 in    
Wind  
Wind Speed 3 mph (South)    
Max Wind Speed 13 mph    
Max Gust Speed -    
Visibility 6 miles    
Events Fog    
Averages and records for this station are not official NWS values.
T = Trace of Precipitation, MM = Missing Value Source: NWS Daily Summary

Daily Weather History Graph

Daily Weather History Graph

Search for Another Location

Airport:

Trip Planner

Search our weather history database for the weather conditions in past years. The results will help you decide how hot, cold, wet, or windy it might be!

Date:

Astronomy

Apr. 21, 2014 Rise Set
Actual Time 5:53 AM EDT 7:29 PM EDT
Civil Twilight 5:24 AM EDT 7:58 PM EDT
Nautical Twilight 4:49 AM EDT 8:33 PM EDT
Astronomical Twilight 4:11 AM EDT 9:11 PM EDT
Moon 12:57 AM EDT (4/21) 11:15 AM EDT (4/21)
Length of Visible Light 14h 33m
Length of Day
13h 35m
Waning Gibbous, 58% of the Moon is Illuminated
Apr 21
Waning Gibbous
Apr 22
Last Quarter
Apr 29
New
May 6
First Quarter
May 14
Full

Hourly Weather History & Observations

Time (EDT) Temp. Windchill Dew Point Humidity Pressure Visibility Wind Dir Wind Speed Gust Speed Precip Events Conditions
12:53 AM 33.1 °F 30.0 °F 28.9 °F 85% 30.33 in 10.0 mi East 3.5 mph - N/A   Clear
1:53 AM 28.9 °F 25.2 °F 25.0 °F 85% 30.30 in 9.0 mi ESE 3.5 mph - N/A   Clear
2:53 AM 27.0 °F - 24.1 °F 89% 30.27 in 10.0 mi Calm Calm - N/A   Clear
3:24 AM 27.0 °F - 24.1 °F 89% 30.27 in 1.8 mi Calm Calm - N/A   Clear
3:36 AM 28.0 °F - 25.0 °F 88% 30.26 in 0.5 mi Calm Calm - N/A Fog Light Freezing Fog
3:53 AM 26.1 °F - 23.0 °F 88% 30.26 in 1.0 mi Calm Calm - N/A   Clear
3:58 AM 27.0 °F 23.0 °F 24.1 °F 89% 30.25 in 0.8 mi East 3.5 mph - N/A   Mist
4:09 AM 25.0 °F - 23.0 °F 92% 30.25 in 0.2 mi Calm Calm - N/A Fog Light Freezing Fog
4:17 AM 23.0 °F - 19.9 °F 88% 30.25 in 0.5 mi Calm Calm - N/A Fog Light Freezing Fog
4:32 AM 25.0 °F - 23.0 °F 92% 30.24 in 0.2 mi Calm Calm - N/A Fog Light Freezing Fog
4:40 AM 25.0 °F - 23.0 °F 92% 30.24 in 0.5 mi Calm Calm - N/A Fog Light Freezing Fog
4:53 AM 25.0 °F - 23.0 °F 92% 30.24 in 0.5 mi Calm Calm - N/A Fog Light Freezing Fog
5:03 AM 25.0 °F - 23.0 °F 92% 30.23 in 1.2 mi Calm Calm - N/A   Scattered Clouds
5:42 AM 24.1 °F - 21.0 °F 88% 30.24 in 4.0 mi Calm Calm - N/A   Clear
5:53 AM 24.1 °F - 21.0 °F 88% 30.24 in 1.8 mi Calm Calm - N/A   Partly Cloudy
5:56 AM 25.0 °F - 21.9 °F 88% 30.23 in 0.8 mi Calm Calm - N/A   Mist
6:07 AM 26.1 °F 21.9 °F 23.0 °F 88% 30.23 in 1.5 mi SE 3.5 mph - N/A   Scattered Clouds
6:11 AM 26.1 °F 20.5 °F 24.1 °F 92% 30.23 in 3.0 mi SSE 4.6 mph - N/A   Scattered Clouds
6:53 AM 32.0 °F - 28.0 °F 85% 30.23 in 6.0 mi Calm Calm - N/A   Clear
7:53 AM 45.0 °F - 41.0 °F 86% 30.22 in 10.0 mi Calm Calm - N/A   Clear
8:53 AM 51.1 °F - 41.0 °F 68% 30.22 in 10.0 mi South 3.5 mph - N/A   Clear
9:53 AM 54.0 °F - 39.9 °F 59% 30.19 in 10.0 mi South 6.9 mph - N/A   Clear
10:53 AM 55.0 °F - 39.0 °F 55% 30.18 in 10.0 mi South 8.1 mph - N/A   Clear
11:53 AM 57.9 °F - 39.9 °F 51% 30.14 in 10.0 mi South 11.5 mph - N/A   Clear
12:53 PM 57.0 °F - 41.0 °F 55% 30.11 in 10.0 mi South 10.4 mph - N/A   Clear
1:53 PM 59.0 °F - 39.9 °F 49% 30.09 in 10.0 mi SSW 12.7 mph - N/A   Clear
2:53 PM 57.9 °F - 41.0 °F 53% 30.05 in 10.0 mi SSW 9.2 mph - N/A   Clear
3:53 PM 57.9 °F - 41.0 °F 53% 30.02 in 10.0 mi SW 9.2 mph - N/A   Clear
4:53 PM 55.9 °F - 42.1 °F 60% 30.00 in 10.0 mi SSW 11.5 mph - N/A   Clear
5:53 PM 55.0 °F - 42.1 °F 62% 29.99 in 10.0 mi SSW 9.2 mph - N/A   Clear
6:53 PM 51.1 °F - 43.0 °F 74% 29.96 in 10.0 mi SSW 9.2 mph - N/A   Clear
7:53 PM 46.9 °F - 42.1 °F 83% 29.95 in 10.0 mi SSW 6.9 mph - N/A   Clear
8:53 PM 46.0 °F 41.9 °F 42.1 °F 86% 29.94 in 10.0 mi SSW 8.1 mph - N/A   Clear
9:53 PM 48.9 °F - 43.0 °F 80% 29.93 in 10.0 mi SW 6.9 mph - N/A   Clear
10:53 PM 48.9 °F - 43.0 °F 80% 29.91 in 10.0 mi SW 5.8 mph - N/A   Clear
11:53 PM 48.0 °F - 43.0 °F 83% 29.89 in 10.0 mi SW 6.9 mph - N/A   Clear